Regional Weather Roundup
Issued by NWS

Home | Current Version | Previous Version | Text Only | Print | Product List | Glossary Off
Versions: 1 2 3 4 5 6 7 8 9 10 11 12 13 14 15 16 17 18 19 20 21 22 23 24 25 26 27 28 29 30 31 32 33 34 35 36 37 38 39 40 41 42 43 44 45 46 47 48 49 50

000
ASUS45 KPSR 262210
RWRAZ

ARIZONA HOURLY REGIONAL WEATHER ROUNDUP
NATIONAL WEATHER SERVICE PHOENIX AZ
300 PM MST SUN FEB 26 2017

NOTE: FAIR INDICATES FEW OR NO CLOUDS BELOW 12,000 FEET WITH NO
SIGNIFICANT WEATHER AND/OR OBSTRUCTIONS TO VISIBILITY.

AZZ001>003-036-262300-
NORTHWEST ARIZONA

CITY           SKY/WX    TMP DP  RH WIND       PRES   REMARKS
BULLHEAD CITY  PTSUNNY   64  30  27 S9        29.88F
KINGMAN        PTSUNNY   55  14  19 SW20G25   29.87F
$$

AZZ004>008-015-016-018-262300-
NORTH CENTRAL ARIZONA

CITY           SKY/WX    TMP DP  RH WIND       PRES   REMARKS
GRAND CANYON   CLOUDY    41  21  44 SW14      29.86F
WILLIAMS       PTSUNNY   39  21  48 S10G17    29.88S WCI  32
PRESCOTT       CLOUDY    47  22  37 SE3       29.88F
FLAGSTAFF      PTSUNNY   35  21  56 SW14      29.88S WCI  26
PAYSON         CLOUDY    48  21  34 S10G21    29.91F
PAGE           CLOUDY    49  13  23 VRB5      29.84F
$$

AZZ009>014-017-262300-
NORTHEAST ARIZONA

CITY           SKY/WX    TMP DP  RH WIND       PRES   REMARKS
WINSLOW        SUNNY     50  22  33 SW12      29.87F
SAINT JOHNS    PTSUNNY   49  15  25 VRB6G21   29.86F
WINDOW ROCK    CLOUDY    39  19  44 W9        29.88F WCI  33
SHOW LOW       PTSUNNY   45  14  29 S23       29.90S
$$

AZZ023-262300-
GREATER PHOENIX AREA

CITY           SKY/WX    TMP DP  RH WIND       PRES   REMARKS
PHOENIX        MOSUNNY   68  28  22 SW5       29.85F
BUCKEYE        SUNNY     64  27  24 SW7       29.88S
GLENDALE       MOSUNNY   66  28  24 S10G18    29.88F
LUKE AFB       SUNNY     66  29  24 SW9       29.85F
DEER VALLEY    CLOUDY    64  28  25 S10G18    29.85F
SCOTTSDALE     MOSUNNY   65  23  20 SW10      29.87F
MESA-FALCON    PTSUNNY  N/A N/A N/A VRB6      29.84F
MESA-GATEWAY   MOSUNNY   64  27  24 SW7       29.88
CHANDLER       PTSUNNY   66  21  18 S12       29.87F
$$

AZZ027-028-262300-
SOUTHWEST MARICOPA COUNTY AND PINAL COUNTY

CITY           SKY/WX    TMP DP  RH WIND       PRES   REMARKS
CASA GRANDE    NOT AVBL
$$

AZZ503-504-507>509-262300-
SOUTHEAST ARIZONA

CITY           SKY/WX    TMP DP  RH WIND       PRES   REMARKS
TUCSON         PTSUNNY   67  16  14 NW12      29.90F
DAVIS-MONTHAN  MOSUNNY   64  16  15 NW12      29.89S
RYAN FIELD       N/A     70  25  18 W14G23    29.90F
NOGALES        MOSUNNY   64  17  16 SW15G25   29.93F
SIERRA VISTA   MOSUNNY   60  13  16 W29G35    29.92S
DOUGLAS        PTSUNNY   65  14  14 W23G31    29.90F
SAFFORD        PTSUNNY   63  24  22 W12G24    29.87F
$$

AZZ020-021-025-026-031-262300-
SOUTHWEST ARIZONA

CITY           SKY/WX    TMP DP  RH WIND       PRES   REMARKS
YUMA           MOSUNNY   68  37  32 W12       29.89F
$$

CAZ031-033-041-043-047-048-061-262300-
SOUTHERN CALIFORNIA

CITY           SKY/WX    TMP DP  RH WIND       PRES   REMARKS
DOWNTOWN L.A.  CLOUDY    56  47  71 CALM      29.95F
L.A. AIRPORT   PTSUNNY   55  46  71 SE6       29.95F
SAN DIEGO      PTSUNNY   57  49  74 S17       30.00F
BURBANK        CLOUDY    56  40  55 SE9       29.93F
ONTARIO        LGT RAIN  54  46  74 S6        29.94F
RIVERSIDE      LGT RAIN  52  48  86 CALM      29.95F
PALM SPRINGS   MOSUNNY   67  44  43 NW15G23   29.89F
EL CENTRO NAS  LGT RAIN  70  38  31 W24G32    29.92F
IMPERIAL       SUNNY     69  42  37 W23       29.89F
BLYTHE         SUNNY     67  32  27 SW13      29.88F
NEEDLES        PTSUNNY   65  31  28 VRB6      29.87F
$$

NVZ020-UTZ003-262300-
SOUTHERN NEVADA-UTAH

CITY           SKY/WX    TMP DP  RH WIND       PRES   REMARKS
LAS VEGAS      MOSUNNY   59  21  23 VRB5      29.82F
SALT LAKE CITY MOSUNNY   39  16  39 S18       29.79F WCI  30
$$

NMZ009-TXZ055-262300-
NEW MEXICO-WEST TEXAS

CITY           SKY/WX    TMP DP  RH WIND       PRES   REMARKS
ALBUQUERQUE    CLOUDY    41  26  55 NE15      29.90F
EL PASO        LGT RAIN  67  15  13 W22G30    29.82F BLWGDUST
$$


........................KEY........................
SKY/WX - SKY CONDITION/WEATHER
TMP    - TEMPERATURE IN FAHRENHEIT
DP     - DEW POINT IN FAHRENHEIT
RH     - RELATIVE HUMIDITY IN PERCENT
WIND   - DIRECTION AND SPEED IN MILES PER HOUR (MPH)
VRB    - VARIABLE WIND DIRECTION
PRES   - MEAN SEA LEVEL PRESSURE IN INCHES OF MERCURY
         F - FALLING PRESSURE   R - RISING PRESSURE
         S - STEADY PRESSURE
VSB    - VISIBILITY IN MILES
HX     - HEAT INDEX IN FAHRENHEIT
WCI    - WIND CHILL INDEX IN FAHRENHEIT
TC     - TEMPERATURE IN CELSIUS WHICH IS ALSO KNOWN AS
         TEMPERATURE IN CENTIGRADE
AFB    - AIR FORCE BASE
         LUKE AFB IS LUKE AIR FORCE BASE
         DAVIS-MONTHAN IS DAVIS-MONTHAN AIR FORCE BASE
NAS    - NAVAL AIR STATION
         EL CENTRO NAS IS EL CENTRO NAVAL AIR STATION
N/A    - NOT AVAILABLE




USA.gov is the U.S. government's official web portal to all federal, state and local government web resources and services.